Regional Weather Roundup
Issued by NWS

Home | Current Version | Previous Version | Text Only | Print | Product List | Glossary Off
Versions: 1 2 3 4 5 6 7 8 9 10 11 12 13 14 15 16 17 18 19 20 21 22 23 24 25 26 27 28 29 30 31 32 33 34 35 36 37 38 39 40 41 42 43 44 45 46 47 48 49 50

000
ASUS44 KMEG 252010
RWRTN
TENNESSEE HOURLY STATE WEATHER ROUNDUP
NATIONAL WEATHER SERVICE MEMPHIS TN
300 PM CDT THU MAY 25 2017

TNZ002-004-019-021-049-052-054-088>092-252100-
WEST TENNESSEE

CITY           SKY/WX    TMP DP  RH WIND       PRES   REMARKS
MEMPHIS INTL   MOSUNNY   75  52  44 VRB3G21   29.80F
NWS MEMPHIS      N/A     74 N/A N/A MISG        N/A
JACKSON        SUNNY     75  51  43 W12G18    29.79F
DYERSBURG        N/A    N/A N/A N/A MISG        N/A
COVINGTON      SUNNY     75  52  43 W9G15     29.79F
UNION CITY     MOSUNNY   73  50  43 W12G20    29.76S
BOLIVAR        SUNNY     73  52  46 SW8G18    29.80S
PARIS          MOSUNNY   73  52  46 SW15      29.76F
HUNTINGDON     PTSUNNY   73  54  49 SW13      29.77S
LEXINGTON      MOSUNNY   73  52  46 MISG      29.79S
SELMER         PTSUNNY   70  50  49 VRB7G14   29.80F
SAVANNAH       PTSUNNY   73  50  43 W6G15     29.80S
$$

TNZ008-025-027-028-033-062-065-066-252100-
NORTH MIDDLE TENNESSEE

CITY           SKY/WX    TMP DP  RH WIND       PRES   REMARKS
NASHVILLE      PTSUNNY   74  52  46 W13G23    29.76R
PORTLAND       PTSUNNY   70  54  56 W10G18    29.73S
CLARKSVILLE    MOSUNNY   73  51  46 W15G23    29.75R
SMYRNA         PTSUNNY   73  54  51 W18       29.76S
COOKEVILLE     CLOUDY    68  54  60 W13G20    29.73S
GALLATIN       PTSUNNY   73  54  49 W9G18     29.76S
CROSSVILLE     CLOUDY    63  51  65 W17G25    29.76R
$$

TNZ061-075-076-078-094-096-097-252100-
SOUTH MIDDLE TENNESSEE

CITY           SKY/WX    TMP DP  RH WIND       PRES   REMARKS
FAYETTEVILLE   PTSUNNY   70  52  52 W9G20     29.79S
COLUMBIA       MOSUNNY   72  52  49 W8G23     29.76S
SHELBYVILLE    PTSUNNY   72  52  49 SW17      29.77S
$$

TNZ017-018-042-046-047-252100-
NORTHEAST TENNESSEE

CITY           SKY/WX    TMP DP  RH WIND       PRES   REMARKS
TRI CITIES     CLOUDY    57  54  89 SW18G25   29.66S
ELIZABETHTON   CLOUDY    55  54  94 W6G14     29.67S
$$

TNZ012-013-036-069-073-074-252100-
CENTRAL EAST TENNESSEE

CITY           SKY/WX    TMP DP  RH WIND       PRES   REMARKS
KNOXVILLE      NOT AVBL
OAK RIDGE      CLOUDY    66  49  54 W9        29.72R
DOWNTOWN KNOXV CLOUDY    66  52  59 W14G23    29.70R
MORRISTOWN     CLOUDY    61  54  77 W8G17     29.68S
JACKSBORO      CLOUDY    66  52  59 VRB5G25   29.71S
$$

TNZ083-085-099-252100-
SOUTHEAST TENNESSEE

CITY           SKY/WX    TMP DP  RH WIND       PRES   REMARKS
CHATTANOOGA    PTSUNNY   72  49  44 W10G20    29.76S
$$

SKY/WX REPORTED AS FAIR MEANS FEW OR NO CLOUDS BELOW
12 THOUSAND FEET.




USA.gov is the U.S. government's official web portal to all federal, state and local government web resources and services.